Temp
70 69 68 67 66 63 62 64 63 65 65 66 67 68 69 69 70 69 70 71 70 70 71 70 70 72 73 76 75 71 72 74 73 74 66 65 64 67 63 67 65 65 62
68 68 66 66 65 63 61 60 63 63 64 64 65 65 67 69 68 68 68 70 69 69 70 70 72 70 70 72 75 72 74 73 73 69 63 62 63 63 63 62 61 63 67
68 66 63 62 62 61 61 59 60 61 62 63 63 63 63 64 65 66 67 67 68 68 69 69 70 69 64 68 71 73 75 74 70 71 62 62 60 60 58 59 60 63 67
65 63 61 60 60 60 60 59 59 60 59 60 61 61 61 62 63 65 63 64 65 67 67 67 69 69 64 61 63 69 71 71 72 67 68 62 60 58 60 58 56 61 65
62 61 59 59 60 59 58 58 58 58 58 58 57 59 59 60 64 57 58 60 60 62 64 66 67 64 61 60 61 60 65 68 71 67 64 62 59 57 57 60 61 62 64
60 59 59 58 58 57 56 56 55 55 56 55 56 56 56 58 51 50 52 56 58 58 59 62 64 63 65 58 57 57 57 59 64 68 68 64 63 61 61 60 60 57 61
58 58 58 57 56 56 56 55 54 53 53 53 54 54 54 55 49 47 49 54 55 58 58 59 62 67 62 66 61 58 58 55 55 61 64 70 67 64 63 59 60 63 69
56 56 56 56 55 55 54 53 52 53 52 53 53 53 53 54 48 46 47 54 55 56 57 58 59 60 62 60 62 64 65 64 63 62 61 67 71 71 66 65 61 65 63
55 54 55 55 53 53 52 51 51 51 51 51 53 52 52 52 47 46 47 53 54 54 57 57 58 59 53 45 59 61 63 65 63 55 52 52 52 53 62 60 58 62 61
53 53 54 54 52 51 50 47 48 49 50 52 52 52 50 50 47 45 47 53 53 55 56 57 51 53 43 43 57 60 60 63 67 67 66 58 52 55 54 63 59 58 64
53 53 53 52 51 51 48 48 48 48 48 48 49 51 51 50 50 45 44 50 50 52 54 56 59 45 42 42 43 56 57 58 59 63 65 63 58 58 59 62 62 69 63
51 51 51 51 51 51 48 48 48 47 46 47 47 49 52 51 47 46 43 43 46 48 48 52 51 43 42 42 45 47 44 45 57 62 62 60 58 57 58 59 60 64 70
47 45 44 46 49 50 47 47 47 47 46 46 47 47 48 50 50 45 43 43 44 48 50 48 44 42 42 45 45 44 44 53 54 60 60 65 62 59 60 58 60 63 63
42 43 43 43 45 46 48 48 47 46 45 45 44 44 45 45 47 47 48 47 45 46 47 47 45 43 42 45 48 53 58 59 57 57 60 66 67 61 58 59 56 56 56
43 42 42 43 43 45 45 45 45 47 46 43 42 42 40 40 44 42 41 42 42 42 41 44 46 47 47 49 51 53 56 58 58 60 56 56 66 63 57 58 57 55 54
41 41 42 43 44 45 44 43 43 41 40 40 39 40 42 41 40 39 39 38 38 38 38 39 39 42 43 45 48 50 54 55 57 61 58 56 64 65 60 57 57 56 54
41 41 43 42 44 43 42 41 39 42 41 40 39 39 39 38 38 38 38 38 37 37 37 38 38 40 42 43 45 50 52 53 57 56 59 58 63 65 59 58 56 56 55
43 41 42 43 42 42 41 40 40 38 38 39 41 39 39 38 38 38 37 38 39 39 39 40 40 42 43 43 45 48 53 51 50 55 58 58 63 65 60 58 58 57 55
45 47 46 44 41 40 40 40 39 39 38 38 40 40 40 38 38 37 37 38 39 39 40 40 43 42 43 46 47 49 51 51 49 52 52 58 62 64 64 60 58 49 50
46 42 40 38 38 38 39 39 39 38 37 37 37 38 39 38 38 39 41 40 41 41 43 41 42 43 44 46 48 49 51 50 49 52 54 52 60 64 65 62 59 54 55
44 41 37 39 38 39 39 38 38 37 37 37 37 39 34 36 36 38 39 40 41 41 42 43 43 43 45 45 48 49 51 49 48 52 49 55 57 61 65 64 60 58 56
40 38 39 38 38 38 38 37 37 36 36 35 36 37 34 36 38 38 38 39 41 42 42 43 42 42 44 44 48 49 52 48 47 48 49 54 56 61 64 64 61 57 56
39 39 38 38 38 36 36 36 35 34 34 34 35 36 36 36 36 36 37 38 40 41 42 44 40 41 44 45 47 51 50 49 48 49 49 51 57 61 63 63 63 58 57
38 37 36 36 35 34 34 34 34 34 34 35 35 35 35 36 36 36 37 38 39 40 41 42 43 42 43 45 46 52 53 52 50 50 50 51 57 52 57 62 63 60 57
37 36 35 34 33 33 33 34 33 33 33 34 34 35 36 36 35 36 37 38 38 39 40 42 44 45 43 44 46 49 46 37 44 40 49 52 58 60 60 61 62 61 58
36 35 35 34 33 33 33 33 33 33 33 34 35 35 36 36 36 37 38 38 37 38 40 41 42 45 43 44 47 42 36 35 41 36 45 52 56 60 59 60 63 62 62
MSLP
1018.58 1018.78 1018.77 1018.80 1018.90 1018.83 1018.72 1018.89 1019.18 1018.97 1018.38 1018.02 1017.97 1017.31 1016.92 1016.55 1016.54 1016.32 1015.85 1015.56 1015.15 1014.79 1014.58 1014.17 1014.06 1014.12 1013.78 1013.39 1013.37 1013.72 1013.77 1013.88 1013.60 1013.87 1015.29 1015.82 1016.30 1016.54 1017.11 1017.24 1017.80 1018.14 1018.83
1018.89 1019.07 1019.30 1019.60 1019.65 1019.79 1019.60 1019.64 1019.76 1019.56 1019.04 1018.72 1018.52 1017.79 1017.18 1016.67 1016.45 1016.26 1015.82 1015.29 1015.29 1014.94 1014.76 1014.22 1013.72 1013.78 1013.61 1013.45 1013.19 1013.08 1013.10 1013.21 1013.66 1013.96 1015.01 1015.90 1016.24 1016.53 1017.01 1017.46 1017.97 1018.11 1018.24
1018.83 1019.12 1019.54 1019.80 1019.91 1020.22 1020.15 1020.28 1020.19 1019.88 1019.52 1018.87 1018.52 1018.14 1017.61 1017.14 1016.85 1016.52 1016.08 1015.47 1015.24 1015.32 1015.00 1014.65 1013.79 1013.88 1013.78 1013.41 1013.22 1012.81 1012.67 1013.09 1013.47 1013.75 1014.74 1015.48 1016.16 1016.44 1017.08 1017.47 1017.80 1018.07 1018.28
1019.15 1019.38 1019.59 1019.87 1020.11 1020.30 1020.36 1020.30 1020.24 1019.95 1019.44 1018.88 1018.58 1018.36 1017.82 1017.35 1016.87 1016.59 1016.54 1016.24 1015.58 1015.24 1015.27 1015.08 1014.12 1014.13 1014.00 1013.86 1013.68 1012.94 1012.63 1012.85 1013.14 1013.72 1013.72 1014.86 1015.50 1016.16 1016.70 1017.13 1017.57 1017.78 1017.80
1019.41 1019.67 1020.01 1020.14 1020.26 1020.30 1020.21 1020.16 1020.06 1019.83 1019.39 1019.17 1018.50 1018.12 1017.65 1017.24 1016.96 1017.49 1017.24 1016.86 1016.44 1015.53 1015.54 1014.84 1014.25 1014.47 1014.35 1014.10 1013.90 1013.72 1013.19 1012.93 1012.73 1013.13 1013.60 1014.04 1014.89 1015.36 1015.58 1016.44 1016.71 1017.09 1017.40
1019.69 1019.89 1020.16 1020.32 1020.26 1020.14 1020.03 1019.96 1019.87 1019.59 1019.34 1019.12 1018.74 1018.37 1017.87 1017.38 1017.22 1017.80 1017.71 1016.93 1016.17 1015.84 1015.69 1015.19 1014.29 1014.44 1013.97 1013.93 1013.88 1013.83 1013.70 1013.40 1013.02 1012.71 1012.84 1012.96 1013.76 1014.30 1014.78 1015.45 1016.20 1016.77 1016.61
1020.00 1020.16 1020.26 1020.30 1020.19 1020.08 1020.05 1019.94 1019.71 1019.46 1019.30 1018.97 1018.66 1018.39 1017.91 1017.60 1017.51 1017.49 1017.45 1016.57 1016.21 1015.83 1015.55 1015.19 1014.56 1014.18 1014.33 1013.79 1013.61 1013.60 1013.37 1013.36 1012.98 1013.13 1012.65 1012.01 1012.62 1013.30 1013.95 1014.69 1015.21 1015.55 1015.00
1020.21 1020.22 1020.18 1020.11 1020.02 1020.02 1019.96 1019.81 1019.72 1019.59 1019.22 1018.73 1018.31 1018.16 1017.82 1017.38 1017.59 1017.88 1017.16 1016.24 1015.65 1015.57 1015.49 1015.14 1014.94 1014.44 1014.08 1014.20 1013.95 1013.33 1013.17 1012.83 1012.83 1012.62 1012.68 1012.36 1012.05 1012.29 1013.21 1013.67 1014.47 1014.99 1015.62
1020.47 1020.37 1020.27 1020.18 1019.96 1019.85 1019.66 1019.52 1019.40 1019.08 1018.71 1018.29 1018.00 1017.61 1017.47 1017.32 1017.27 1017.62 1017.29 1016.36 1015.23 1014.69 1014.89 1014.89 1014.61 1014.44 1014.27 1014.29 1013.93 1013.39 1012.83 1012.29 1011.96 1012.08 1011.96 1012.20 1012.11 1012.26 1012.49 1013.62 1013.83 1014.49 1014.77
1020.50 1020.36 1020.25 1020.10 1020.08 1019.86 1019.67 1019.70 1019.49 1019.06 1018.34 1017.79 1017.19 1017.00 1017.03 1016.62 1016.61 1016.63 1016.71 1015.99 1015.24 1014.53 1014.49 1014.08 1014.33 1014.56 1014.35 1014.51 1013.79 1013.14 1012.47 1012.14 1011.73 1011.58 1011.33 1012.02 1011.88 1012.02 1012.24 1012.55 1013.03 1013.39 1013.23
1020.82 1020.63 1020.31 1020.17 1020.03 1019.65 1019.58 1019.39 1019.09 1018.59 1018.00 1017.51 1016.97 1016.64 1016.31 1015.95 1015.80 1016.05 1015.89 1015.73 1015.34 1014.63 1014.04 1014.05 1013.80 1014.37 1014.69 1014.39 1013.97 1013.06 1012.42 1012.22 1012.10 1011.75 1011.47 1011.22 1011.53 1011.78 1012.01 1012.07 1012.11 1012.07 1012.11
1021.22 1020.95 1020.53 1020.15 1019.88 1019.46 1019.27 1018.89 1018.47 1018.02 1017.47 1016.95 1016.45 1015.80 1015.33 1015.43 1015.58 1015.59 1015.69 1015.81 1015.70 1014.81 1014.15 1014.02 1013.92 1014.15 1014.46 1014.39 1013.64 1012.78 1012.84 1012.79 1012.11 1011.64 1010.91 1010.55 1010.57 1011.18 1011.31 1011.56 1011.59 1012.01 1011.77
1021.28 1021.04 1020.82 1020.40 1019.79 1019.29 1019.04 1018.49 1017.92 1017.37 1016.99 1016.51 1016.03 1015.52 1015.10 1015.02 1015.09 1015.19 1015.36 1015.42 1015.34 1014.74 1014.06 1013.70 1014.01 1014.19 1013.89 1013.60 1013.42 1012.80 1012.40 1011.93 1011.33 1010.75 1010.37 1009.61 1009.58 1010.26 1010.50 1010.92 1011.14 1011.88 1012.44
1021.35 1020.98 1020.63 1020.17 1019.59 1019.20 1018.70 1018.11 1017.57 1017.15 1016.70 1016.33 1015.96 1015.50 1015.22 1015.07 1015.05 1014.97 1014.88 1014.70 1014.54 1014.16 1013.76 1013.68 1013.70 1013.72 1013.40 1013.23 1013.22 1011.67 1010.74 1010.42 1010.31 1010.18 1009.88 1009.00 1008.80 1009.47 1009.76 1010.19 1010.84 1010.96 1011.90
1021.11 1020.79 1020.31 1019.79 1019.26 1018.64 1018.26 1017.81 1017.37 1016.93 1016.58 1016.28 1015.97 1015.60 1015.23 1014.83 1014.61 1014.71 1014.63 1014.27 1014.14 1014.12 1014.16 1013.68 1012.84 1012.39 1012.38 1012.16 1011.38 1010.64 1010.13 1009.63 1009.46 1009.48 1009.47 1009.23 1008.43 1008.74 1009.03 1009.55 1010.11 1010.33 1010.86
1020.93 1020.49 1020.00 1019.44 1018.79 1018.22 1017.68 1017.14 1016.95 1016.59 1016.23 1015.94 1015.61 1015.42 1014.78 1014.45 1014.13 1013.85 1013.63 1013.47 1013.49 1013.56 1013.45 1013.00 1012.58 1012.31 1011.91 1011.42 1010.56 1009.88 1009.36 1009.14 1008.81 1008.44 1008.54 1008.60 1007.96 1007.71 1008.29 1008.80 1009.38 1010.10 1010.75
1020.47 1020.04 1019.52 1018.98 1018.26 1017.72 1017.23 1016.75 1016.04 1015.55 1015.35 1014.94 1014.51 1014.32 1014.06 1013.75 1013.42 1013.17 1012.97 1012.81 1012.67 1012.74 1012.42 1012.03 1011.74 1011.45 1010.97 1010.62 1010.31 1009.52 1009.01 1008.95 1008.44 1008.10 1007.74 1007.84 1007.34 1007.21 1007.66 1007.98 1008.67 1009.43 1010.14
1019.91 1019.55 1019.04 1018.37 1017.85 1017.30 1016.77 1016.19 1015.65 1015.00 1014.26 1013.80 1013.50 1013.20 1012.86 1012.61 1012.49 1012.39 1012.27 1012.15 1011.72 1011.41 1011.18 1010.84 1010.68 1010.49 1010.03 1009.79 1009.60 1009.01 1008.48 1008.55 1008.48 1007.90 1007.19 1007.15 1006.79 1006.56 1007.02 1007.55 1007.94 1008.79 1009.48
1019.26 1018.65 1018.12 1017.71 1017.28 1016.78 1016.22 1015.59 1015.03 1014.39 1013.76 1013.07 1012.44 1012.09 1011.90 1011.71 1011.50 1011.44 1011.36 1011.15 1010.66 1010.31 1010.09 1009.85 1009.57 1009.41 1009.17 1008.77 1008.62 1008.24 1007.92 1008.00 1008.08 1007.48 1007.09 1006.46 1006.15 1006.02 1006.12 1006.95 1007.41 1008.15 1008.80
1018.73 1018.41 1018.17 1017.66 1016.94 1016.24 1015.53 1014.82 1014.18 1013.66 1013.08 1012.51 1012.01 1011.57 1011.26 1011.11 1010.69 1010.39 1010.24 1010.01 1009.63 1009.24 1008.82 1008.77 1008.63 1008.47 1008.21 1007.95 1007.65 1007.40 1007.18 1007.32 1007.41 1007.01 1006.62 1006.31 1005.75 1005.41 1005.41 1006.06 1006.81 1007.58 1008.35
1018.42 1017.98 1017.67 1017.02 1016.33 1015.67 1014.94 1014.28 1013.69 1013.16 1012.61 1012.02 1011.51 1011.11 1011.03 1010.77 1010.03 1009.61 1009.24 1008.92 1008.56 1008.35 1008.08 1007.74 1007.70 1007.61 1007.40 1007.27 1006.93 1006.56 1006.32 1006.47 1006.71 1006.38 1006.33 1005.69 1005.36 1004.95 1004.99 1005.42 1006.23 1007.06 1008.09
1018.33 1017.87 1017.19 1016.65 1015.97 1015.23 1014.59 1014.01 1013.33 1012.72 1012.16 1011.57 1010.94 1010.50 1010.24 1009.88 1009.24 1008.75 1008.38 1008.05 1007.77 1007.64 1007.49 1007.18 1007.16 1007.08 1006.83 1006.51 1006.15 1005.73 1005.48 1005.89 1005.99 1005.96 1005.69 1005.00 1004.78 1004.63 1004.60 1005.02 1005.69 1006.63 1007.54
1018.09 1017.44 1016.81 1016.17 1015.57 1014.90 1014.19 1013.60 1012.90 1012.29 1011.63 1011.02 1010.42 1009.78 1009.31 1008.84 1008.34 1007.90 1007.53 1007.33 1007.08 1006.88 1006.75 1006.45 1006.62 1006.31 1006.22 1006.10 1005.77 1005.17 1004.89 1005.14 1005.32 1005.31 1005.02 1004.67 1004.28 1004.21 1004.30 1004.48 1005.03 1006.05 1007.07
1018.03 1017.32 1016.65 1015.95 1015.26 1014.58 1013.80 1013.05 1012.34 1011.70 1011.04 1010.27 1009.61 1009.05 1008.45 1007.91 1007.45 1007.01 1006.74 1006.54 1006.24 1006.07 1005.93 1005.77 1005.61 1005.65 1005.60 1005.43 1005.29 1004.76 1004.45 1004.58 1004.73 1004.87 1004.77 1003.89 1003.41 1004.08 1004.13 1004.21 1004.66 1005.57 1006.51
1017.94 1017.19 1016.50 1015.80 1015.05 1014.24 1013.40 1012.60 1011.89 1011.17 1010.45 1009.73 1008.95 1008.25 1007.61 1007.08 1006.63 1006.19 1005.87 1005.63 1005.47 1005.33 1005.13 1004.93 1004.82 1004.74 1004.88 1004.79 1004.65 1004.43 1004.12 1004.44 1004.48 1004.69 1004.41 1003.97 1003.61 1003.69 1004.13 1004.25 1004.61 1005.31 1006.26
1017.90 1017.14 1016.41 1015.67 1014.89 1014.15 1013.39 1012.50 1011.60 1010.75 1009.92 1009.15 1008.36 1007.59 1006.91 1006.28 1005.74 1005.31 1004.96 1004.71 1004.63 1004.58 1004.40 1004.30 1004.27 1004.01 1004.25 1004.22 1004.03 1004.08 1004.29 1004.42 1004.40 1004.52 1004.52 1004.27 1003.88 1003.84 1004.19 1004.46 1004.66 1005.15 1005.65
Wind_Speed
7 7 7 6 4 3 3 3 5 8 8 10 11 11 9 8 7 6 7 6 7 6 5 4 5 8 7 6 4 4 6 7 10 3 2 6 7 8 7 7 9 6 6
5 5 5 5 6 6 7 7 8 7 7 8 11 11 12 11 9 8 8 7 9 8 7 8 7 5 8 8 7 6 5 6 8 10 3 3 3 8 8 8 6 5 6
3 5 5 6 6 6 6 6 7 8 9 10 10 10 11 12 11 9 8 7 6 8 8 8 8 7 5 7 8 8 6 5 6 7 4 3 2 6 4 4 6 5 5
5 5 5 5 5 5 6 7 8 9 10 12 12 12 11 11 12 9 11 10 8 7 7 7 7 7 5 5 8 8 6 6 6 7 6 4 3 4 5 6 5 5 6
5 5 5 5 5 6 7 8 9 10 10 12 12 13 12 10 8 12 12 10 9 9 9 7 5 9 9 5 2 5 8 8 7 7 7 6 5 4 8 5 6 6 7
5 4 4 6 7 8 9 10 10 10 10 10 11 11 12 10 12 11 12 12 11 9 10 10 8 8 5 6 6 6 4 5 9 8 8 8 11 9 8 7 7 6 6
5 5 6 7 9 9 10 10 11 11 11 11 11 11 11 12 10 13 15 11 11 11 10 9 8 6 8 8 5 8 7 8 7 8 11 10 9 11 10 11 10 10 5
6 7 8 9 10 10 11 11 11 11 12 11 11 12 11 11 10 11 14 14 11 11 11 10 10 10 9 7 8 7 7 7 7 3 7 11 10 10 12 11 10 8 4
6 7 8 9 11 12 13 14 13 12 12 11 11 12 12 12 8 10 11 11 12 12 11 11 11 11 9 4 7 9 8 8 6 10 10 12 10 12 12 7 9 11 7
8 9 10 10 11 12 12 12 12 13 13 11 13 12 12 12 10 7 10 9 10 8 11 11 8 11 4 4 9 9 8 9 8 9 7 5 6 12 18 13 9 10 5
9 11 11 11 11 11 12 11 11 12 12 12 13 12 12 11 11 8 9 10 9 8 8 8 8 7 4 6 7 8 9 7 9 9 9 6 4 8 9 11 10 11 7
10 11 11 10 9 9 12 12 12 11 12 12 12 11 9 9 9 8 6 8 11 9 8 8 6 3 6 7 8 6 7 8 7 9 8 7 5 7 10 10 9 9 5
11 11 12 12 11 10 11 12 11 10 10 10 9 10 9 8 8 8 9 10 11 9 7 8 7 6 7 10 10 7 9 7 7 9 9 10 8 8 10 7 9 10 4
10 13 11 11 13 13 10 10 10 10 10 10 10 11 10 10 9 8 8 7 7 9 9 8 7 10 10 11 12 11 8 8 7 7 9 10 6 7 8 7 6 8 6
10 10 11 9 11 11 10 10 10 11 11 11 11 11 10 10 10 9 10 10 9 8 10 10 10 10 10 10 10 9 9 9 9 9 9 8 10 9 8 8 7 8 6
10 9 9 10 10 10 10 10 12 16 20 20 21 17 12 16 19 18 17 16 15 13 9 9 9 9 11 9 9 9 9 9 10 10 8 8 12 9 9 8 8 9 8
10 10 9 11 10 10 10 10 10 11 15 18 20 21 21 20 21 20 19 18 17 13 8 9 9 9 9 9 9 11 9 9 9 9 9 10 12 9 7 8 9 9 9
11 14 10 10 10 11 10 10 10 10 11 10 11 14 16 17 18 18 17 14 10 9 9 10 9 9 9 9 10 11 10 8 8 8 10 10 12 10 7 8 9 10 9
12 11 12 12 11 12 11 10 10 10 10 10 10 10 10 13 14 15 16 10 10 9 9 9 9 8 9 9 10 10 11 8 7 8 7 10 12 11 10 9 9 10 9
12 15 13 9 9 10 9 10 10 10 10 9 9 10 8 8 10 10 9 9 9 9 9 8 9 8 8 9 9 9 10 8 8 9 9 7 11 12 11 11 9 9 10
11 11 11 9 9 10 10 10 10 10 10 11 10 9 9 10 11 11 10 9 9 9 9 9 8 8 8 8 10 8 10 7 8 8 6 10 10 12 11 10 9 11 10
9 9 9 9 10 10 10 11 10 10 11 11 11 10 12 10 9 9 9 9 9 9 9 9 7 8 7 7 10 9 10 7 7 6 7 8 9 12 11 11 11 10 9
9 10 10 9 10 12 10 10 10 10 11 11 11 10 9 8 8 9 9 9 9 9 9 9 6 7 7 7 8 10 7 7 6 5 5 9 11 12 11 11 12 11 11
10 11 11 10 9 11 10 11 11 12 11 11 10 10 10 9 10 11 9 9 9 9 9 8 8 8 8 8 7 10 8 4 3 5 8 7 9 6 7 10 11 14 11
10 10 10 10 10 10 11 11 11 11 11 11 10 11 10 10 11 11 9 9 8 8 9 8 8 9 10 14 11 11 5 6 6 4 5 4 5 11 9 8 10 10 12
10 11 10 9 10 10 10 11 12 12 12 12 13 11 11 11 10 10 9 8 8 7 8 7 9 10 9 8 10 10 5 5 7 6 4 6 6 9 8 8 11 8 12
Wind_Direction
84 74 65 58 54 62 92 31 348 331 339 329 323 326 325 329 332 337 348 351 353 357 346 339 319 289 273 264 230 209 236 242 258 173 134 176 174 179 162 155 156 149 149
98 69 41 50 49 35 31 21 356 349 341 338 332 332 327 325 326 326 334 346 341 342 342 340 331 323 287 263 259 242 241 222 255 250 161 164 195 177 164 162 161 170 180
35 46 55 53 50 40 26 6 349 341 336 333 332 331 332 330 328 324 328 335 333 326 332 334 351 344 329 299 267 260 241 218 219 234 196 170 135 155 144 146 164 188 204
97 83 66 43 22 2 354 345 334 327 321 321 318 313 318 321 329 341 338 329 326 319 318 323 343 340 356 7 335 281 251 237 209 217 206 178 166 156 177 179 170 200 200
91 70 38 11 344 332 330 326 322 316 315 313 315 309 311 312 309 349 331 322 317 322 307 305 317 329 326 337 353 325 304 258 230 208 213 190 180 164 185 189 206 194 209
73 45 356 329 323 327 325 322 315 314 313 311 310 309 310 306 342 334 331 317 313 306 299 307 314 296 291 323 335 321 285 304 267 235 213 206 210 203 175 181 184 186 211
24 353 334 325 321 323 316 311 311 313 306 301 299 301 302 303 317 322 325 316 306 295 292 295 300 298 311 313 314 309 299 280 233 277 268 229 211 201 180 177 189 208 209
346 334 329 326 318 315 309 306 304 301 295 294 297 296 296 296 306 303 316 309 299 289 287 289 282 284 285 308 302 292 292 298 288 262 248 270 245 196 199 197 189 187 131
329 323 323 322 316 315 311 310 307 305 304 300 296 296 294 292 292 286 296 301 293 301 297 287 288 278 290 134 273 275 282 283 283 269 244 268 254 176 182 156 166 187 184
333 329 322 317 315 313 316 312 308 303 301 306 305 304 299 298 299 256 287 296 285 283 292 292 250 264 78 211 259 265 263 267 284 297 301 267 230 197 176 192 173 190 163
329 319 314 310 306 312 308 305 303 303 305 303 301 300 302 306 307 295 281 299 290 288 287 278 278 124 208 214 250 259 253 312 289 278 278 271 201 196 198 200 188 206 176
320 311 310 308 307 305 307 302 299 297 297 301 301 300 305 309 306 304 296 287 304 290 292 288 300 12 301 288 261 264 260 262 255 257 254 256 206 198 200 205 189 220 237
325 319 315 312 306 306 301 302 302 304 300 300 302 303 306 309 304 298 285 276 276 281 285 297 287 233 271 277 243 270 260 238 245 241 243 241 216 205 197 206 185 194 143
320 315 306 301 306 303 298 295 300 302 302 299 301 300 301 301 297 299 302 304 310 304 301 292 298 287 269 266 269 261 256 233 232 246 247 256 228 214 187 175 172 160 145
317 314 309 301 295 294 288 288 288 288 290 297 292 293 295 291 289 302 292 292 295 295 303 287 278 270 267 262 258 258 257 254 231 232 237 246 240 212 192 177 173 169 153
314 309 301 300 296 294 291 290 271 262 270 268 266 264 276 273 284 285 286 284 277 268 267 268 266 264 262 264 264 256 253 244 252 235 231 230 240 221 196 184 176 181 164
293 300 302 296 295 294 293 288 288 286 266 262 263 263 261 264 273 276 277 281 279 265 249 253 252 255 256 252 256 253 240 252 249 272 219 231 228 221 202 184 178 182 178
299 290 290 295 295 292 290 288 288 289 292 286 271 262 263 258 259 264 267 277 276 241 239 249 249 254 254 240 244 250 241 242 250 251 245 216 231 217 202 212 172 184 166
305 304 312 308 299 296 295 291 285 283 281 285 290 281 277 263 266 269 259 263 265 258 250 249 251 247 243 246 243 249 242 234 243 245 269 232 222 218 210 206 188 177 154
312 308 306 297 294 290 289 288 289 290 290 290 290 291 299 297 294 291 277 271 269 268 263 251 246 246 245 245 249 241 244 230 242 245 246 248 230 216 213 199 182 164 168
312 312 301 291 293 291 293 295 297 297 295 296 293 292 285 283 287 285 284 276 270 269 270 266 259 253 247 245 244 245 241 233 237 246 252 247 228 216 210 196 174 168 165
311 303 300 295 293 296 300 300 298 298 298 296 297 293 280 274 275 278 275 274 274 267 266 265 258 252 247 245 246 237 239 229 230 241 246 245 221 220 205 201 177 162 159
315 312 307 305 307 307 304 306 302 298 295 295 293 292 291 282 278 275 274 274 269 264 262 256 254 236 248 244 254 251 239 228 215 236 271 274 214 203 196 190 191 165 160
324 320 317 313 310 309 304 304 302 301 298 298 298 294 289 285 283 280 278 272 269 263 259 253 239 248 238 237 249 257 230 225 209 234 250 271 180 169 170 185 176 166 163
322 320 318 315 312 312 312 314 311 308 305 303 300 299 297 294 287 282 275 274 267 260 256 254 256 229 240 241 236 244 257 197 235 286 306 267 186 168 166 176 174 170 154
325 324 322 320 319 319 317 317 315 313 311 311 312 307 304 300 293 285 284 273 263 257 255 252 250 234 240 245 245 233 252 220 228 231 277 280 196 171 163 169 182 178 180